Location: Fort Worth, Tx
(32.7431°N, 97.3695°W)
Time: 00:56:02
(UTC-04:00)

Vanguard 2 - Pass Details

Date: 23 February 2024
Orbit: 552 x 2916 km, 32.9° (Epoch: 24 April)

Event Time Altitude Azimuth Distance (km) Brightness Sun altitude
Rises 20:06:14 0° 229° (SW) 4,203 12.3 -10.1°
Reaches altitude 10° 20:08:43 10° 225° (SW) 3,495 11.7 -10.6°
Maximum altitude 20:17:53 56° 149° (SSE) 2,268 9.7 -12.6°
Enters shadow 20:29:33 17° 81° (E) 4,645 10.8 -15.0°
